2017-008AB

Last updated on Wed Mar 01 2017 00:15:03 GMT+0000 (Coordinated Universal Time)

1 41973U 17008AB 17059.75249849 .00001484 00000-0 69012-4 0 9999 2 41973 97.5090 121.3556 0008060 203.8003 156.2852 15.21527720 1966
UTC large
Height (km)
Speed (km/s)
/
Latitude / Longitude
Inclination (degrees)
Orbital Period (minutes)
Azimuth
Elevation
Range (km)
Doppler Factor

Next 0 passes for location: London (51.5072 / 0.1276)

Sorry there are no passes over London.